This demonstration page uses our WeatherBlox Daily Observations layout. Learn more.

Left ArrowRight Arrow

38.20091, -84.87328

Hourly Observations for August 10, 2022

Temp ( °F °C ) Dew Point ( °F °C ) Humidity (%) Winds ( mph kmh ) Pressure ( in mb ) Visibility ( mi km ) Precip ( " mm )
12:53 am 00:53 Clear 72 22.2 70 21.1 93 93 S 3 6 30.06 1018 10 16 0.01 0.25
1:53 am 01:53 Clear 73 22.8 71 21.7 94 94 S 5 7 30.06 1018 10 16 0.00 0.00
2:53 am 02:53 Mostly Clear 72 22.2 71 21.7 97 97 SW 3 6 30.06 1018 8 13 0.00 0.00
3:53 am 03:53 Clear 73 22.8 71 21.7 94 94 S 3 6 30.07 1018 10 16 0.00 0.00
4:53 am 04:53 Cloudy 73 22.8 71 21.7 94 94 SW 6 9 30.07 1018 10 16 0.00 0.00
5:10 am 05:10 Mostly Cloudy 73 22.8 71 21.7 94 94 Calm 30.07 1018 10 16 0.00 0.00
5:53 am 05:53 Cloudy 73 22.8 71 21.7 94 94 SW 6 9 30.08 1019 10 16 0.00 0.00
6:01 am 06:01 Cloudy 73 22.8 71 21.7 94 94 SW 9 15 30.07 1018 9 14 0.00 0.00
6:17 am 06:17 Cloudy 73 22.8 71 21.7 94 94 VRB 5 7 30.08 1019 7 11 0.00 0.00
6:53 am 06:53 Cloudy with Mist and Fog 73 22.8 72 22.2 96 96 WSW 3 6 30.08 1019 5 8 0.00 0.00
7:53 am 07:53 Cloudy 74 23.3 72 22.2 94 94 Calm 30.10 1019 7 11 0.00 0.00
8:53 am 08:53 Cloudy 75 23.9 72 22.2 90 90 Calm 30.11 1020 10 16 0.00 0.00
9:53 am 09:53 Cloudy 76 24.4 72 22.2 88 88 WSW 3 6 30.13 1020 9 14 0.00 0.00
10:44 am 10:44 Mostly Cloudy 78 25.6 73 22.8 85 85 S 5 7 30.12 1020 10 16 0.00 0.00
10:53 am 10:53 Mostly Cloudy 79 26.1 74 23.3 85 85 S 5 7 30.13 1020 10 16 0.00 0.00
11:12 am 11:12 Mostly Cloudy 79 26.1 73 22.8 82 82 SW 5 7 30.11 1020 10 16 0.00 0.00
11:33 am 11:33 Mostly Cloudy 80 26.7 73 22.8 79 79 VRB 3 6 30.11 1020 10 16 0.00 0.00
11:53 am 11:53 Mostly Cloudy 80 26.7 73 22.8 79 79 Calm 30.13 1020 10 16 0.00 0.00
12:15 pm 12:15 Mostly Cloudy 81 27.2 73 22.8 77 77 SSW 6 9 30.11 1020 10 16 0.00 0.00
12:34 pm 12:34 Mostly Cloudy with Nearby Thunderstorms 82 27.8 74 23.3 77 77 SSW 8 13 30.10 1019 10 16 0.00 0.00
12:53 pm 12:53 Mostly Cloudy with Nearby Thunderstorms 83 28.3 74 23.3 74 74 SSE 7 11 30.10 1019 10 16 0.00 0.00
1:17 pm 13:17 Cloudy with Thunderstorms 80 26.7 73 22.8 79 79 undefined N/A 30.09 1019 10 16 0.00 0.00
1:32 pm 13:32 Cloudy with Thunderstorms 75 23.9 71 21.7 88 88 N 12 19 30.10 1019 1 2 0.01 0.13
1:40 pm 13:40 Cloudy with Thunderstorms 74 23.3 71 21.7 91 91 N 9 15 30.10 1019 3 4 0.01 0.25
1:53 pm 13:53 Cloudy with Strong Thunderstorms 73 22.8 71 21.7 94 94 NW 7 11 30.12 1020 1 2 0.12 3.05
1:56 pm 13:56 Cloudy with Strong Thunderstorms 73 22.8 71 21.7 94 94 NNW 6 9 30.12 1020 1 1 0.04 1.02
2:06 pm 14:06 Cloudy with Strong Thunderstorms 73 22.8 72 22.2 96 96 NNW 5 7 30.10 1019 1 1 0.19 4.83
2:17 pm 14:17 Cloudy with Strong Thunderstorms 73 22.8 72 22.2 96 96 Calm 30.10 1019 1 2 0.27 6.86
2:28 pm 14:28 Cloudy with Strong Thunderstorms 73 22.8 72 22.2 96 96 ESE 3 6 30.09 1019 2 2 0.32 8.13
2:48 pm 14:48 Mostly Cloudy with Thunderstorms 73 23 72 22 94 94 Calm 30.07 1018 3 5 0.39 9.91
2:53 pm 14:53 Mostly Cloudy with Thunderstorms 74 23.3 73 22.8 97 97 Calm 30.08 1019 5 8 0.39 9.91
3:09 pm 15:09 Mostly Cloudy 74 23.3 73 22.8 97 97 Calm 30.07 1018 8 13 0.01 0.13
3:32 pm 15:32 Mostly Sunny 75 23.9 73 22.8 94 94 W 3 6 30.07 1018 10 16 0.01 0.13
3:53 pm 15:53 Mostly Sunny 78 25.6 73 22.8 85 85 VRB 3 6 30.08 1019 10 16 0.01 0.13
4:53 pm 16:53 Partly Cloudy 81 27.2 74 23.3 79 79 SSE 5 7 30.06 1018 10 16 0.00 0.00
5:04 pm 17:04 Mostly Cloudy 80 26.7 73 22.8 79 79 SE 3 6 30.05 1018 10 16 0.00 0.00
5:53 pm 17:53 Mostly Cloudy with Light Rain 79 26.1 74 23.3 85 85 Calm 30.06 1018 7 11 0.01 0.25
6:53 pm 18:53 Mostly Cloudy 79 26.1 75 23.9 88 88 SE 6 9 30.06 1018 10 16 0.03 0.76
7:53 pm 19:53 Cloudy 78 25.6 74 23.3 87 87 S 6 9 30.06 1018 10 16 0.00 0.00
8:53 pm 20:53 Clear 75 23.9 71 21.7 88 88 S 7 11 30.06 1018 10 16 0.00 0.00
9:35 pm 21:35 Mostly Clear with Nearby Thunderstorms 74 23.3 71 21.7 91 91 SW 3 6 30.06 1018 10 16 0.00 0.00
9:53 pm 21:53 Mostly Clear 74 23.3 72 22.2 94 94 NW 5 7 30.07 1018 10 16 0.00 0.00
10:53 pm 22:53 Mostly Clear 74 23.3 72 22.2 94 94 Calm 30.08 1019 10 16 0.00 0.00
11:17 pm 23:17 Mostly Cloudy 74 23.3 72 22.2 94 94 Calm 30.07 1018 10 16 0.00 0.00
11:53 pm 23:53 Cloudy 74 23.3 72 22.2 94 94 SW 3 6 30.07 1018 10 16 0.00 0.00

Powered by AerisWeather